SQ7KHZ-10 Weather Reports


Display with metric or nautical units.
time (UTC)temp
F
wind
direction
speed
MPH
gust
MPH
rain 1hr
in
rain 24hr
in
rain mn
in
humidity
%
barometer
mb
20260506214107 57 138 0.0 0.0 0.03 0.03 0.00 93 1005.9
20260506212103 60 87 4.0 4.0 0.01 0.01 0.00 85 1005.8
20260506210057 62 135 2.0 2.0 0.00 0.00 0.00 73 1006.1
20260506204013 62 178 0.0 0.0 0.00 0.00 0.00 71 1005.9
20260506202008 61 70 0.0 0.0 0.00 0.00 0.00 73 1005.9
20260506200006 61 100 0.0 0.0 0.00 0.00 0.00 71 1005.9
20260506193954 60 152 0.0 0.0 0.00 0.00 0.00 74 1005.8
20260506191943 61 141 0.0 0.0 0.00 0.00 0.00 71 1005.6
20260506185919 62 179 0.0 0.0 0.00 0.00 0.00 70 1005.6
20260506183906 63 123 0.0 0.0 0.00 0.00 0.00 73 1005.4
20260506181854 65 168 0.0 0.0 0.00 0.00 0.00 65 1005.2
20260506175843 67 125 0.0 0.0 0.00 0.00 0.00 64 1005.2
20260506173819 69 273 0.0 0.0 0.00 0.00 0.00 61 1005.1
20260506171806 70 272 0.0 0.0 0.00 0.00 0.00 57 1005.1
20260506165807 72 136 0.0 0.0 0.00 0.00 0.00 53 1005.1
20260506163755 73 161 0.0 0.0 0.00 0.00 0.00 49 1005.1
20260506161754 73 248 0.0 0.0 0.00 0.00 0.00 47 1005.2
20260506155752 73 119 0.0 0.0 0.00 0.00 0.00 50 1005.2
20260506153747 75 119 2.0 2.0 0.00 0.00 0.00 47 1005.2
20260506151740 75 182 2.0 2.0 0.00 0.00 0.00 46 1005.3
20260506145731 74 124 0.0 0.0 0.00 0.00 0.00 47 1005.4
20260506143730 75 224 5.0 5.0 0.00 0.00 0.00 45 1005.3
20260506141718 76 235 2.0 2.0 0.00 0.00 0.00 46 1005.4
20260506135711 75 161 3.0 3.0 0.00 0.00 0.00 45 1005.5
20260506133710 76 157 6.0 8.0 0.00 0.00 0.00 44 1005.4
20260506131702 77 115 2.0 2.0 0.00 0.00 0.00 43 1005.5
20260506125652 76 125 5.0 5.0 0.00 0.00 0.00 46 1005.4
20260506123641 75 201 3.0 3.0 0.00 0.00 0.00 50 1005.6
20260506121629 74 355 6.0 7.0 0.00 0.00 0.00 48 1005.5
20260506115624 73 287 0.0 0.0 0.00 0.00 0.00 52 1005.8
20260506113614 73 160 0.0 0.0 0.00 0.00 0.00 51 1005.7
20260506111605 73 153 5.0 6.0 0.00 0.00 0.00 54 1005.9
20260506105543 71 125 4.0 4.0 0.00 0.00 0.00 56 1005.8
20260506103543 72 19 2.0 2.0 0.00 0.00 0.00 54 1005.7
20260506101532 73 115 4.0 4.0 0.00 0.00 0.00 54 1005.7
20260506095523 72 150 4.0 5.0 0.00 0.00 0.00 54 1005.7
20260506093501 71 274 0.0 0.0 0.00 0.00 0.00 54 1005.6
20260506091452 72 271 2.0 2.0 0.00 0.00 0.00 56 1005.6
20260506085444 70 101 2.0 2.0 0.00 0.00 0.00 55 1005.6
20260506083434 69 204 4.0 4.0 0.00 0.00 0.00 58 1005.6
20260506081423 68 225 4.0 4.0 0.00 0.00 0.00 59 1005.6
20260506073412 67 230 4.0 4.0 0.00 0.00 0.00 59 1005.4
20260506071403 66 276 2.0 2.0 0.00 0.00 0.00 60 1005.3
20260506061344 62 135 2.0 2.0 0.00 0.00 0.00 65 1005.2
20260506051329 57 108 2.0 2.0 0.00 0.00 0.00 74 1005.4
20260506043327 50 113 0.0 0.0 0.00 0.00 0.00 81 1005.4
20260506041314 49 113 0.0 0.0 0.00 0.00 0.00 80 1005.3
20260506035314 49 113 0.0 0.0 0.00 0.00 0.00 82 1005.3
20260506033314 48 102 0.0 0.0 0.00 0.00 0.00 79 1005.0
20260506031302 49 93 0.0 0.0 0.00 0.00 0.00 78 1005.2
20260506025305 50 11 0.0 0.0 0.00 0.00 0.00 76 1005.3
20260506023250 50 217 0.0 0.0 0.00 0.00 0.00 70 1005.4
20260506021237 51 162 0.0 0.0 0.00 0.00 0.00 71 1005.4
20260506015237 52 131 0.0 0.0 0.00 0.00 0.00 70 1005.5
20260506013226 52 135 0.0 0.0 0.00 0.00 0.00 66 1005.5
20260506011226 52 151 0.0 0.0 0.00 0.00 0.00 70 1005.6
20260506005213 52 90 0.0 0.0 0.00 0.00 0.00 69 1005.7
20260506003202 52 17 0.0 0.0 0.00 0.00 0.00 67 1005.6
20260506001201 52 46 0.0 0.0 0.00 0.00 0.00 71 1005.7
20260505235159 52 0 0.0 0.0 0.00 0.00 0.00 69 1005.7
20260505233146 53 125 0.0 0.0 0.00 0.00 0.00 65 1005.8
20260505231146 54 112 0.0 0.0 0.00 0.00 0.00 60 1005.8
20260505225134 54 145 0.0 0.0 0.00 0.00 0.00 59 1005.8
20260505223122 54 146 0.0 0.0 0.00 0.00 0.00 60 1005.9
20260505221120 55 139 0.0 0.0 0.00 0.00 0.00 55 1005.8